KW1M Weather Reports


Display with metric or nautical units.
time (UTC)temp
F
wind
direction
speed
MPH
gust
MPH
rain 1hr
in
rain 24hr
in
rain mn
in
humidity
%
barometer
mb
20260906064506 56 156 0.0 0.0 0.00 0.04 0.00 97 1014.1
20260906063005 56 156 0.0 0.0 0.00 0.04 0.00 97 1014.1
20260906061504 56 173 0.0 0.0 0.00 0.04 0.00 97 1014.1
20260906060002 57 246 0.0 0.0 0.00 0.04 0.00 97 1014.1
20260906054601 57 226 0.0 0.0 0.00 0.04 0.00 97 1014.1
20260906053100 57 226 0.0 0.0 0.00 0.04 0.00 97 1014.2
20260906051605 57 225 0.0 0.0 0.00 0.04 0.00 97 1014.2
20260906050107 57 225 0.0 0.0 0.00 0.04 0.00 97 1014.2
20260906044556 57 225 0.0 0.0 0.00 0.04 0.00 97 1014.2
20260906043100 57 225 0.0 0.0 0.00 0.04 0.00 97 1014.2
20260906041601 58 225 0.0 0.0 0.00 0.04 0.00 97 1014.2
20260906040052 58 225 0.0 0.0 0.00 0.04 0.00 97 1014.1
20260906034608 58 225 0.0 0.0 0.00 0.04 0.04 97 1014.2
20260906033048 59 252 0.0 0.0 0.00 0.04 0.04 97 1014.0
20260906031552 59 252 0.0 0.0 0.00 0.04 0.04 97 1013.9
20260906030048 59 252 0.0 0.0 0.00 0.04 0.04 97 1013.8
20260906024546 59 252 0.0 0.0 0.00 0.04 0.04 97 1013.9
20260906023047 59 250 0.0 0.0 0.00 0.04 0.04 97 1014.0
20260906021545 59 252 0.0 0.0 0.00 0.04 0.04 96 1013.8
20260906020051 59 252 0.0 0.0 0.00 0.04 0.04 96 1013.8
20260906014544 59 250 0.0 0.0 0.00 0.04 0.04 96 1013.9
20260906013100 59 252 0.0 0.0 0.00 0.04 0.04 96 1013.8
20260906011547 59 250 0.0 0.0 0.01 0.04 0.04 96 1013.9
20260906010042 59 252 0.0 0.0 0.02 0.04 0.04 96 1013.8
20260906004540 59 250 0.0 0.0 0.02 0.04 0.04 96 1013.6
20260906003039 60 252 0.0 0.0 0.02 0.04 0.04 95 1013.5
20260906001538 60 250 0.0 0.0 0.01 0.03 0.03 95 1013.4
20260906000042 60 250 0.0 0.0 0.01 0.02 0.02 95 1013.3
20260905234536 60 250 0.0 0.0 0.01 0.02 0.02 94 1013.2
20260905233040 60 134 0.0 0.0 0.01 0.02 0.02 94 1012.8
20260905231533 61 127 0.0 0.0 0.01 0.02 0.02 93 1012.9
20260905230034 61 165 0.0 1.0 0.00 0.01 0.01 93 1012.8
20260905224529 62 163 0.0 0.0 0.01 0.01 0.01 93 1012.7
20260905223028 62 232 0.0 0.0 0.01 0.01 0.01 92 1012.6
20260905221526 63 232 0.0 0.0 0.01 0.01 0.01 91 1012.5
20260905220025 64 232 0.0 0.0 0.01 0.01 0.01 88 1012.3
20260905214526 66 284 0.0 0.0 0.00 0.00 0.00 81 1012.1
20260905213022 67 243 0.0 1.0 0.00 0.00 0.00 78 1011.8
20260905211520 68 150 0.0 3.0 0.00 0.00 0.00 78 1011.7
20260905210031 69 143 0.0 2.0 0.00 0.00 0.00 75 1011.6
20260905204516 71 125 0.0 4.0 0.00 0.00 0.00 73 1011.4
20260905203016 70 162 0.0 3.0 0.00 0.00 0.00 74 1011.3
20260905201516 68 121 0.0 1.0 0.00 0.00 0.00 80 1011.3
20260905200021 68 312 0.0 3.0 0.00 0.00 0.00 76 1011.2
20260905194513 70 238 0.0 4.0 0.00 0.00 0.00 75 1011.1
20260905193012 71 161 0.0 1.0 0.00 0.00 0.00 72 1010.9
20260905191512 72 221 0.0 1.0 0.00 0.00 0.00 70 1010.9
20260905190015 72 134 0.0 0.0 0.00 0.00 0.00 67 1010.9
20260905184515 72 154 0.0 1.0 0.00 0.00 0.00 65 1010.8
20260905183010 74 133 0.0 3.0 0.00 0.00 0.00 64 1010.8
20260905181509 75 162 0.0 2.0 0.00 0.00 0.00 65 1010.8
20260905180008 74 138 0.0 3.0 0.00 0.00 0.00 69 1010.8
20260905174518 72 185 0.0 6.0 0.00 0.00 0.00 70 1010.9
20260905173007 72 18 0.0 3.0 0.00 0.00 0.00 69 1010.8
20260905171506 73 358 1.0 4.0 0.00 0.00 0.00 66 1010.7
20260905170005 73 158 1.0 5.0 0.00 0.00 0.00 67 1010.7
20260905164505 74 347 1.0 4.0 0.00 0.00 0.00 65 1010.7
20260905163004 74 304 0.0 2.0 0.00 0.00 0.00 63 1010.8
20260905161501 73 112 1.0 6.0 0.00 0.00 0.00 67 1010.7
20260905160109 73 124 0.0 1.0 0.00 0.00 0.00 66 1010.8
20260905154627 71 129 0.0 1.0 0.00 0.00 0.00 72 1010.9
20260905153054 70 124 0.0 2.0 0.00 0.00 0.00 75 1010.9
20260905151551 69 200 0.0 3.0 0.00 0.00 0.00 82 1011.0
20260905150056 66 150 0.0 0.0 0.00 0.00 0.00 88 1010.9
20260905144549 65 200 0.0 0.0 0.00 0.00 0.00 89 1011.0
20260905143052 65 295 0.0 0.0 0.00 0.00 0.00 89 1011.0
20260905141547 66 295 0.0 0.0 0.00 0.00 0.00 84 1010.9
20260905140046 67 122 0.0 1.0 0.00 0.00 0.00 80 1010.8
20260905134542 67 122 0.0 2.0 0.00 0.00 0.00 83 1010.7
20260905133038 65 139 0.0 3.0 0.00 0.00 0.00 87 1010.6
20260905131538 64 141 0.0 1.0 0.00 0.00 0.00 89 1010.4
20260905130033 64 264 0.0 0.0 0.00 0.00 0.00 90 1010.4
20260905124532 63 255 0.0 0.0 0.00 0.00 0.00 91 1010.3
20260905123035 62 255 0.0 0.0 0.00 0.00 0.00 92 1010.1
20260905121530 62 255 0.0 0.0 0.00 0.00 0.00 93 1010.1
20260905120026 61 254 0.0 0.0 0.00 0.00 0.00 94 1010.0
20260905114523 60 255 0.0 0.0 0.00 0.00 0.00 95 1009.9
20260905113023 60 254 0.0 0.0 0.00 0.00 0.00 96 1009.8
20260905111521 59 255 0.0 0.0 0.00 0.00 0.00 96 1009.7
20260905110017 59 255 0.0 0.0 0.00 0.00 0.00 97 1009.6
20260905104519 58 255 0.0 0.0 0.00 0.00 0.00 96 1009.6
20260905103014 58 255 0.0 0.0 0.00 0.00 0.00 96 1009.4
20260905101513 58 255 0.0 0.0 0.00 0.00 0.00 96 1009.3
20260905100012 58 255 0.0 0.0 0.00 0.00 0.00 96 1009.3
20260905094511 58 255 0.0 0.0 0.00 0.00 0.00 96 1009.2
20260905093010 58 288 0.0 0.0 0.00 0.00 0.00 96 1009.1
20260905091509 58 288 0.0 0.0 0.00 0.00 0.00 95 1008.9
20260905090010 58 288 0.0 0.0 0.00 0.00 0.00 95 1009.0
20260905084506 59 288 0.0 0.0 0.00 0.01 0.00 95 1008.9
20260905083005 59 288 0.0 0.0 0.00 0.01 0.00 94 1008.8
20260905081504 59 288 0.0 0.0 0.00 0.01 0.00 94 1009.0
20260905080005 59 288 0.0 0.0 0.00 0.01 0.00 94 1008.9
20260905074502 59 240 0.0 0.0 0.00 0.01 0.00 94 1008.8
20260905073110 59 240 0.0 0.0 0.00 0.01 0.00 94 1009.0
20260905071601 60 240 0.0 0.0 0.00 0.01 0.00 94 1009.0
20260905070058 60 240 0.0 1.0 0.00 0.01 0.00 94 1009.3